| time (UTC) | temp F | wind direction | speed knots | gust knots | rain 1hr in | rain 24hr in | rain mn in | humidity % | barometer mb |
| 20260505011913 | 57 | 229 | 2.6 | 3.5 | 0.00 | 0.00 | 0.00 | 58 | 1011.2 |
| 20260505011410 | 57 | 223 | 2.6 | 3.5 | 0.00 | 0.00 | 0.00 | 58 | 1010.9 |
| 20260505010906 | 57 | 238 | 2.6 | 3.5 | 0.00 | 0.00 | 0.00 | 58 | 1011.1 |
| 20260505010402 | 58 | 230 | 3.5 | 5.2 | 0.00 | 0.00 | 0.00 | 57 | 1011.0 |
| 20260505005858 | 57 | 270 | 3.5 | 5.2 | 0.00 | 0.00 | 0.00 | 57 | 1011.1 |
| 20260505005355 | 56 | 196 | 1.7 | 1.7 | 0.00 | 0.00 | 0.00 | 60 | 1010.7 |
| 20260505004853 | 56 | 165 | 0.0 | 1.7 | 0.00 | 0.00 | 0.00 | 63 | 1010.7 |
| 20260505004349 | 55 | 162 | 0.0 | 0.0 | 0.00 | 0.00 | 0.00 | 63 | 1010.4 |
| 20260505003846 | 55 | 157 | 0.0 | 0.0 | 0.00 | 0.00 | 0.00 | 65 | 1010.5 |
| 20260505003344 | 55 | 136 | 0.0 | 0.0 | 0.00 | 0.00 | 0.00 | 63 | 1010.3 |
| 20260505002839 | 56 | 157 | 0.0 | 0.0 | 0.00 | 0.00 | 0.00 | 63 | 1010.3 |
| 20260505002336 | 57 | 157 | 0.0 | 0.0 | 0.00 | 0.00 | 0.00 | 62 | 1010.5 |
| 20260505001835 | 57 | 157 | 0.0 | 0.0 | 0.00 | 0.00 | 0.00 | 60 | 1010.3 |
| 20260505001332 | 59 | 157 | 0.0 | 0.0 | 0.00 | 0.00 | 0.00 | 58 | 1010.5 |
| 20260505000829 | 60 | 157 | 0.0 | 0.0 | 0.00 | 0.00 | 0.00 | 57 | 1010.1 |
| 20260505000327 | 62 | 157 | 0.0 | 0.0 | 0.00 | 0.00 | 0.00 | 54 | 1010.1 |
| 20260504235823 | 64 | 157 | 0.0 | 0.0 | 0.00 | 0.00 | 0.00 | 49 | 1010.1 |
| 20260504235320 | 66 | 157 | 0.0 | 0.0 | 0.00 | 0.00 | 0.00 | 39 | 1009.8 |
| 20260504234817 | 66 | 158 | 0.0 | 0.0 | 0.00 | 0.00 | 0.00 | 36 | 1009.9 |
| 20260504234315 | 67 | 158 | 0.0 | 0.0 | 0.00 | 0.00 | 0.00 | 36 | 1010.0 |
| 20260504233811 | 67 | 157 | 0.0 | 0.0 | 0.00 | 0.00 | 0.00 | 36 | 1009.8 |
| 20260504233306 | 67 | 166 | 0.0 | 0.9 | 0.00 | 0.00 | 0.00 | 35 | 1009.6 |
| 20260504232803 | 68 | 138 | 0.0 | 0.0 | 0.00 | 0.00 | 0.00 | 35 | 1009.4 |
| 20260504232301 | 68 | 165 | 0.0 | 0.9 | 0.00 | 0.00 | 0.00 | 34 | 1009.4 |
| 20260504231757 | 68 | 127 | 0.0 | 0.9 | 0.00 | 0.00 | 0.00 | 33 | 1009.5 |
| 20260504231254 | 69 | 150 | 0.0 | 1.7 | 0.00 | 0.00 | 0.00 | 34 | 1009.3 |
| 20260504230750 | 69 | 171 | 0.0 | 0.9 | 0.00 | 0.00 | 0.00 | 34 | 1009.2 |
| 20260504230248 | 69 | 138 | 0.9 | 1.7 | 0.00 | 0.00 | 0.00 | 35 | 1009.2 |
| 20260504225747 | 69 | 138 | 0.0 | 0.9 | 0.00 | 0.00 | 0.00 | 34 | 1009.1 |
| 20260504225242 | 69 | 166 | 0.0 | 0.0 | 0.00 | 0.00 | 0.00 | 34 | 1009.0 |
| 20260504224740 | 69 | 149 | 0.0 | 0.0 | 0.00 | 0.00 | 0.00 | 34 | 1009.0 |
| 20260504224237 | 69 | 154 | 0.0 | 0.9 | 0.00 | 0.00 | 0.00 | 33 | 1008.9 |
| 20260504223733 | 69 | 114 | 0.0 | 0.9 | 0.00 | 0.00 | 0.00 | 33 | 1008.9 |
| 20260504223229 | 70 | 160 | 0.0 | 2.6 | 0.00 | 0.00 | 0.00 | 33 | 1008.8 |
| 20260504222726 | 70 | 172 | 0.9 | 2.6 | 0.00 | 0.00 | 0.00 | 32 | 1008.7 |
| 20260504222223 | 70 | 182 | 0.9 | 2.6 | 0.00 | 0.00 | 0.00 | 31 | 1008.9 |
| 20260504221720 | 71 | 217 | 2.6 | 3.5 | 0.00 | 0.00 | 0.00 | 32 | 1008.8 |
| 20260504221217 | 71 | 178 | 0.9 | 1.7 | 0.00 | 0.00 | 0.00 | 31 | 1008.7 |
| 20260504220714 | 71 | 192 | 0.9 | 3.5 | 0.00 | 0.00 | 0.00 | 30 | 1008.9 |
| 20260504220212 | 70 | 177 | 1.7 | 2.6 | 0.00 | 0.00 | 0.00 | 30 | 1008.9 |
| 20260504215708 | 70 | 143 | 0.9 | 2.6 | 0.00 | 0.00 | 0.00 | 33 | 1008.8 |
| 20260504215205 | 70 | 160 | 0.0 | 0.0 | 0.00 | 0.00 | 0.00 | 33 | 1008.9 |
| 20260504214700 | 70 | 188 | 1.7 | 1.7 | 0.00 | 0.00 | 0.00 | 32 | 1008.7 |
| 20260504214157 | 70 | 219 | 1.7 | 2.6 | 0.00 | 0.00 | 0.00 | 33 | 1008.7 |
| 20260504213654 | 70 | 187 | 0.9 | 2.6 | 0.00 | 0.00 | 0.00 | 33 | 1008.8 |
| 20260504213151 | 71 | 195 | 0.9 | 1.7 | 0.00 | 0.00 | 0.00 | 32 | 1008.8 |
| 20260504212647 | 71 | 173 | 0.9 | 3.5 | 0.00 | 0.00 | 0.00 | 32 | 1008.6 |
| 20260504212144 | 72 | 131 | 0.9 | 2.6 | 0.00 | 0.00 | 0.00 | 32 | 1008.7 |
| 20260504211641 | 72 | 183 | 1.7 | 3.5 | 0.00 | 0.00 | 0.00 | 32 | 1008.7 |
| 20260504211137 | 72 | 168 | 0.0 | 1.7 | 0.00 | 0.00 | 0.00 | 32 | 1008.7 |
| 20260504210636 | 72 | 169 | 0.9 | 0.9 | 0.00 | 0.00 | 0.00 | 32 | 1008.9 |
| 20260504210131 | 72 | 71 | 0.9 | 1.7 | 0.00 | 0.00 | 0.00 | 31 | 1008.8 |
| 20260504205629 | 72 | 135 | 1.7 | 2.6 | 0.00 | 0.00 | 0.00 | 31 | 1008.8 |
| 20260504205126 | 71 | 143 | 0.0 | 2.6 | 0.00 | 0.00 | 0.00 | 32 | 1008.7 |
| 20260504204625 | 72 | 200 | 2.6 | 2.6 | 0.00 | 0.00 | 0.00 | 32 | 1008.9 |
| 20260504204123 | 73 | 196 | 1.7 | 5.2 | 0.00 | 0.00 | 0.00 | 30 | 1008.6 |
| 20260504203622 | 73 | 180 | 0.9 | 2.6 | 0.00 | 0.00 | 0.00 | 31 | 1008.7 |
| 20260504203120 | 73 | 128 | 0.9 | 1.7 | 0.00 | 0.00 | 0.00 | 32 | 1008.9 |
| 20260504202619 | 73 | 207 | 0.9 | 3.5 | 0.00 | 0.00 | 0.00 | 30 | 1008.7 |
| 20260504202117 | 73 | 90 | 1.7 | 6.1 | 0.00 | 0.00 | 0.00 | 30 | 1008.7 |
| 20260504201613 | 72 | 226 | 1.7 | 2.6 | 0.00 | 0.00 | 0.00 | 31 | 1008.6 |
| 20260504201111 | 72 | 229 | 1.7 | 5.2 | 0.00 | 0.00 | 0.00 | 32 | 1008.7 |
| 20260504200608 | 73 | 241 | 3.5 | 6.1 | 0.00 | 0.00 | 0.00 | 30 | 1008.7 |
| 20260504200104 | 73 | 249 | 2.6 | 2.6 | 0.00 | 0.00 | 0.00 | 30 | 1008.8 |
| 20260504195601 | 74 | 175 | 1.7 | 2.6 | 0.00 | 0.00 | 0.00 | 30 | 1008.7 |
| 20260504195057 | 73 | 151 | 0.9 | 1.7 | 0.00 | 0.00 | 0.00 | 30 | 1008.9 |
| 20260504194554 | 74 | 182 | 4.3 | 6.1 | 0.00 | 0.00 | 0.00 | 30 | 1008.9 |
| 20260504194049 | 73 | 202 | 0.9 | 2.6 | 0.00 | 0.00 | 0.00 | 31 | 1008.8 |
| 20260504193546 | 72 | 166 | 1.7 | 2.6 | 0.00 | 0.00 | 0.00 | 33 | 1008.7 |
| 20260504193045 | 72 | 72 | 1.7 | 5.2 | 0.00 | 0.00 | 0.00 | 31 | 1008.8 |
| 20260504192543 | 72 | 188 | 0.0 | 2.6 | 0.00 | 0.00 | 0.00 | 33 | 1008.9 |
| 20260504192041 | 70 | 137 | 0.0 | 2.6 | 0.00 | 0.00 | 0.00 | 32 | 1008.9 |
| 20260504191538 | 69 | 175 | 0.9 | 2.6 | 0.00 | 0.00 | 0.00 | 33 | 1009.1 |
| 20260504191034 | 68 | 197 | 1.7 | 2.6 | 0.00 | 0.00 | 0.00 | 33 | 1009.0 |
| 20260504190531 | 68 | 218 | 5.2 | 6.1 | 0.00 | 0.00 | 0.00 | 34 | 1008.9 |
| 20260504190026 | 68 | 213 | 1.7 | 5.2 | 0.00 | 0.00 | 0.00 | 33 | 1009.0 |
| 20260504185524 | 68 | 132 | 0.9 | 0.9 | 0.00 | 0.00 | 0.00 | 33 | 1009.3 |
| 20260504185020 | 68 | 172 | 1.7 | 2.6 | 0.00 | 0.00 | 0.00 | 34 | 1009.2 |
| 20260504184515 | 68 | 136 | 0.9 | 1.7 | 0.00 | 0.00 | 0.00 | 34 | 1009.3 |
| 20260504184011 | 68 | 204 | 1.7 | 1.7 | 0.00 | 0.00 | 0.00 | 33 | 1009.2 |
| 20260504183509 | 68 | 132 | 0.0 | 1.7 | 0.00 | 0.00 | 0.00 | 33 | 1009.1 |
| 20260504183007 | 68 | 72 | 2.6 | 3.5 | 0.00 | 0.00 | 0.00 | 32 | 1009.2 |
| 20260504182503 | 68 | 129 | 0.0 | 2.6 | 0.00 | 0.00 | 0.00 | 32 | 1009.1 |
| 20260504182000 | 69 | 212 | 1.7 | 3.5 | 0.00 | 0.00 | 0.00 | 32 | 1009.0 |
| 20260504181457 | 69 | 121 | 0.9 | 2.6 | 0.00 | 0.00 | 0.00 | 32 | 1009.0 |
| 20260504180956 | 69 | 128 | 0.9 | 7.8 | 0.00 | 0.00 | 0.00 | 32 | 1009.0 |
| 20260504180455 | 69 | 184 | 2.6 | 7.0 | 0.00 | 0.00 | 0.00 | 33 | 1009.0 |
| 20260504175953 | 69 | 176 | 0.9 | 6.1 | 0.00 | 0.00 | 0.00 | 31 | 1009.0 |
| 20260504175449 | 69 | 223 | 2.6 | 3.5 | 0.00 | 0.00 | 0.00 | 32 | 1009.1 |
| 20260504174947 | 69 | 216 | 1.7 | 2.6 | 0.00 | 0.00 | 0.00 | 31 | 1009.1 |
| 20260504174444 | 70 | 112 | 0.9 | 6.1 | 0.00 | 0.00 | 0.00 | 31 | 1009.1 |
| 20260504173942 | 71 | 194 | 1.7 | 5.2 | 0.00 | 0.00 | 0.00 | 30 | 1009.0 |
| 20260504173437 | 72 | 239 | 3.5 | 5.2 | 0.00 | 0.00 | 0.00 | 29 | 1008.8 |
| 20260504172936 | 73 | 230 | 3.5 | 5.2 | 0.00 | 0.00 | 0.00 | 28 | 1009.1 |
| 20260504172431 | 73 | 228 | 3.5 | 9.6 | 0.00 | 0.00 | 0.00 | 29 | 1009.0 |
| 20260504171928 | 73 | 241 | 3.5 | 5.2 | 0.00 | 0.00 | 0.00 | 29 | 1008.9 |
| 20260504171425 | 71 | 212 | 5.2 | 7.8 | 0.00 | 0.00 | 0.00 | 29 | 1008.9 |
| 20260504170922 | 72 | 217 | 1.7 | 5.2 | 0.00 | 0.00 | 0.00 | 30 | 1008.9 |
| 20260504170418 | 72 | 105 | 1.7 | 7.8 | 0.00 | 0.00 | 0.00 | 30 | 1009.0 |
| 20260504160337 | 70 | 193 | 3.5 | 5.2 | 0.00 | 0.00 | 0.00 | 34 | 1009.3 |
| 20260504150802 | 64 | 195 | 2.6 | 5.2 | 0.00 | 0.00 | 0.00 | 40 | 1010.3 |
| 20260504150259 | 65 | 215 | 6.1 | 7.0 | 0.00 | 0.00 | 0.00 | 39 | 1010.5 |
| 20260504141229 | 61 | 140 | 1.7 | 5.2 | 0.00 | 0.00 | 0.00 | 43 | 1011.1 |
| 20260504140725 | 61 | 227 | 1.7 | 3.5 | 0.00 | 0.00 | 0.00 | 41 | 1011.4 |
| 20260504140220 | 62 | 170 | 0.9 | 2.6 | 0.00 | 0.00 | 0.00 | 42 | 1011.5 |
| 20260504130649 | 56 | 206 | 1.7 | 2.6 | 0.00 | 0.00 | 0.00 | 51 | 1012.1 |
| 20260504130145 | 56 | 215 | 2.6 | 2.6 | 0.00 | 0.00 | 0.00 | 51 | 1011.9 |
| 20260504120110 | 50 | 120 | 0.0 | 1.7 | 0.00 | 0.00 | 0.00 | 59 | 1013.0 |
| 20260504110537 | 48 | 186 | 1.7 | 1.7 | 0.00 | 0.00 | 0.00 | 56 | 1012.9 |
| 20260504100459 | 43 | 188 | 0.9 | 0.9 | 0.00 | 0.00 | 0.00 | 63 | 1012.8 |
| 20260504081857 | 42 | 181 | 0.0 | 0.9 | 0.00 | 0.00 | 0.00 | 62 | 1012.6 |
| 20260504081354 | 42 | 181 | 0.0 | 0.0 | 0.00 | 0.00 | 0.00 | 63 | 1012.8 |
| 20260504080850 | 41 | 181 | 0.0 | 0.9 | 0.00 | 0.00 | 0.00 | 63 | 1012.7 |
| 20260504080347 | 41 | 181 | 0.0 | 0.9 | 0.00 | 0.00 | 0.00 | 63 | 1012.7 |
| 20260504070315 | 41 | 180 | 0.9 | 0.9 | 0.00 | 0.00 | 0.00 | 64 | 1012.6 |
| 20260504060235 | 39 | 175 | 0.0 | 0.0 | 0.00 | 0.00 | 0.00 | 67 | 1012.5 |
| 20260504050703 | 41 | 175 | 0.0 | 0.0 | 0.00 | 0.00 | 0.00 | 64 | 1012.5 |
| 20260504050200 | 41 | 175 | 0.0 | 0.0 | 0.00 | 0.00 | 0.00 | 64 | 1012.5 |
| 20260504045658 | 41 | 175 | 0.0 | 0.0 | 0.00 | 0.00 | 0.00 | 64 | 1012.6 |
| 20260504045157 | 41 | 175 | 0.0 | 0.0 | 0.00 | 0.00 | 0.00 | 64 | 1012.4 |
| 20260504044655 | 41 | 175 | 0.0 | 0.0 | 0.00 | 0.00 | 0.00 | 64 | 1012.4 |
| 20260504044152 | 41 | 175 | 0.0 | 0.0 | 0.00 | 0.00 | 0.00 | 64 | 1012.5 |
| 20260504043649 | 41 | 175 | 0.0 | 0.0 | 0.00 | 0.00 | 0.00 | 64 | 1012.2 |
| 20260504043146 | 41 | 175 | 0.0 | 0.0 | 0.00 | 0.00 | 0.00 | 64 | 1012.3 |
| 20260504042644 | 41 | 175 | 0.0 | 0.0 | 0.00 | 0.00 | 0.00 | 65 | 1012.3 |
| 20260504042140 | 41 | 178 | 0.0 | 0.0 | 0.00 | 0.00 | 0.00 | 65 | 1012.3 |
| 20260504041636 | 41 | 174 | 0.0 | 0.0 | 0.00 | 0.00 | 0.00 | 66 | 1012.2 |
| 20260504041132 | 41 | 174 | 0.0 | 0.0 | 0.00 | 0.00 | 0.00 | 65 | 1012.3 |
| 20260504040630 | 40 | 174 | 0.0 | 0.0 | 0.00 | 0.00 | 0.00 | 65 | 1012.1 |
| 20260504040127 | 40 | 173 | 0.0 | 0.0 | 0.00 | 0.00 | 0.00 | 65 | 1012.2 |
| 20260504035623 | 40 | 173 | 0.0 | 0.0 | 0.00 | 0.00 | 0.00 | 65 | 1012.2 |
| 20260504035120 | 40 | 173 | 0.0 | 0.0 | 0.00 | 0.00 | 0.00 | 65 | 1012.0 |
| 20260504034618 | 40 | 173 | 0.0 | 0.0 | 0.00 | 0.00 | 0.00 | 65 | 1012.0 |
| 20260504034114 | 41 | 173 | 0.0 | 0.0 | 0.00 | 0.00 | 0.00 | 65 | 1012.1 |
| 20260504033612 | 41 | 173 | 0.0 | 0.0 | 0.00 | 0.00 | 0.00 | 64 | 1012.1 |
| 20260504033109 | 41 | 173 | 0.0 | 0.0 | 0.00 | 0.00 | 0.00 | 63 | 1012.1 |
| 20260504032606 | 42 | 173 | 0.0 | 0.0 | 0.00 | 0.00 | 0.00 | 62 | 1011.8 |
| 20260504032103 | 42 | 173 | 0.0 | 0.0 | 0.00 | 0.00 | 0.00 | 61 | 1012.0 |
| 20260504031600 | 42 | 173 | 0.0 | 0.0 | 0.00 | 0.00 | 0.00 | 62 | 1011.9 |
| 20260504031056 | 42 | 173 | 0.0 | 0.0 | 0.00 | 0.00 | 0.00 | 62 | 1012.0 |
| 20260504030553 | 42 | 173 | 0.0 | 0.0 | 0.00 | 0.00 | 0.00 | 62 | 1012.1 |
| 20260504030049 | 42 | 173 | 0.0 | 0.0 | 0.00 | 0.00 | 0.00 | 62 | 1012.2 |
| 20260504025547 | 42 | 173 | 0.0 | 0.0 | 0.00 | 0.00 | 0.00 | 61 | 1011.9 |
| 20260504025044 | 42 | 173 | 0.0 | 0.0 | 0.00 | 0.00 | 0.00 | 61 | 1012.1 |
| 20260504024541 | 42 | 173 | 0.0 | 0.0 | 0.00 | 0.00 | 0.00 | 61 | 1012.0 |
| 20260504024038 | 42 | 173 | 0.0 | 0.0 | 0.00 | 0.00 | 0.00 | 61 | 1011.9 |
| 20260504023534 | 42 | 173 | 0.0 | 0.0 | 0.00 | 0.00 | 0.00 | 61 | 1011.8 |
| 20260504023030 | 42 | 172 | 0.0 | 0.0 | 0.00 | 0.00 | 0.00 | 61 | 1011.7 |
| 20260504022526 | 42 | 171 | 0.0 | 0.0 | 0.00 | 0.00 | 0.00 | 60 | 1011.8 |
| 20260504022023 | 43 | 171 | 0.0 | 0.0 | 0.00 | 0.00 | 0.00 | 60 | 1011.8 |
| 20260504021520 | 42 | 170 | 0.0 | 0.0 | 0.00 | 0.00 | 0.00 | 60 | 1011.8 |
| 20260504021017 | 43 | 170 | 0.0 | 0.0 | 0.00 | 0.00 | 0.00 | 60 | 1011.9 |
| 20260504020514 | 43 | 170 | 0.0 | 0.0 | 0.00 | 0.00 | 0.00 | 60 | 1011.8 |
| 20260504020011 | 43 | 170 | 0.0 | 0.0 | 0.00 | 0.00 | 0.00 | 59 | 1011.9 |
| 20260504015507 | 43 | 170 | 0.0 | 0.0 | 0.00 | 0.00 | 0.00 | 59 | 1011.8 |
| 20260504015003 | 43 | 170 | 0.0 | 0.0 | 0.00 | 0.00 | 0.00 | 59 | 1011.8 |
| 20260504014459 | 43 | 170 | 0.0 | 0.0 | 0.00 | 0.00 | 0.00 | 59 | 1011.7 |
| 20260504013956 | 43 | 170 | 0.0 | 0.0 | 0.00 | 0.00 | 0.00 | 58 | 1011.9 |
| 20260504013454 | 44 | 170 | 0.0 | 0.0 | 0.00 | 0.00 | 0.00 | 58 | 1011.9 |
| 20260504012950 | 44 | 170 | 0.0 | 0.0 | 0.00 | 0.00 | 0.00 | 58 | 1011.9 |
| 20260504012448 | 44 | 170 | 0.0 | 0.0 | 0.00 | 0.00 | 0.00 | 57 | 1011.6 |